1998-067JH

Last updated on May 20, 2016, 9:36 a.m. UTC

1 41487U 98067JH  16141.12984877  .00022857  00000-0  33716-3 0  9990
2 41487  51.6419 197.9964 0003763  33.4544  60.1360 15.55270734   318

Satellite is not in orbit.